Location: Ferintosh
(52.7647°N, 112.9692°W)
Time: 13:27:11
(UTC+00:00)

Transit 2A - Pass Details

Date: 27 May 2024
Orbit: 593 x 959 km, 66.7° (Epoch: 14 June)

Event Time Altitude Azimuth Distance (km) Brightness Sun altitude
Rises 13:54:10 0° 318° (NW) 3,401 9.0 20.6°
Reaches altitude 10° 13:56:38 10° 312° (NW) 2,514 8.4 21.0°
Maximum altitude 14:02:12 46° 241° (WSW) 1,217 6.9 21.8°
Drops below altitude 10° 14:08:06 10° 171° (S) 2,663 8.9 22.7°
Sets 14:10:47 0° 166° (SSE) 3,621 9.6 23.1°
